Location: Camp Creek
(33.9000°N, 111.8167°W)
Time: 21:46:25
(UTC-07:00)

Cosmos 1656 - Visible Passes

Search period start: 30 August 2015 00:00
Search period end: 09 September 2015 00:00
Orbit: 798 x 850 km, 71.1° (Epoch: 30 August)

Date Brightness Start Highest point End Pass type
(mag) Time Alt. Az. Time Alt. Az. Time Alt. Az.
05 Sep 6.6 23:11:52 11° NNW 23:11:52 11° NNW 23:12:05 10° NNW visible
06 Sep 6.4 22:51:14 13° NNW 22:51:14 13° NNW 22:52:01 10° N visible
07 Sep 6.1 22:30:24 16° NNW 22:30:24 16° NNW 22:31:52 10° N visible
08 Sep 5.8 20:27:53 11° NE 20:27:53 11° NE 20:28:02 10° NE visible
08 Sep 5.7 22:09:12 22° NNW 22:09:12 22° NNW 22:11:41 10° N visible
